Location: El Atico
(3.0014°N, 75.4378°W)
Time: 12:51:30
(UTC+00:00)

SPOT 1/Viking Rocket - Pass Details

Date: 09 December 2025
Orbit: 772 x 790 km, 98.2° (Epoch: 25 January)

Event Time Altitude Azimuth Distance (km) Brightness Sun altitude
Rises 23:27:35 0° 161° (SSE) 3,268 6.8 -8.8°
Reaches altitude 10° 23:29:56 10° 158° (SSE) 2,341 6.0 -9.3°
Maximum altitude 23:35:02 62° 78° (ENE) 883 3.5 -10.5°
Drops below altitude 10° 23:40:08 10° 358° (N) 2,342 5.8 -11.7°
Sets 23:42:29 0° 355° (N) 3,270 6.6 -12.2°
